Hourly Weather Kapan

Today, 6 July, Monday

Time Temperature Precipitation Wind Pressure Humidity
00:00 +20°C° 0 mm 2 mps 681 mmHg 54%
01:00 +20°C° 0 mm 2 mps 681 mmHg 54%
02:00 +21°C° 0 mm 1 mps 681 mmHg 54%
03:00 +20°C° 0 mm 1 mps 681 mmHg 49%
04:00 +21°C° 0 mm 1 mps 681 mmHg 49%
05:00 +22°C° 0 mm 1 mps 682 mmHg 48%
06:00 +22°C° 0 mm 1 mps 682 mmHg 48%
07:00 +24°C° 0 mm 2 mps 682 mmHg 41%
08:00 +26°C° 0 mm 2 mps 683 mmHg 35%
09:00 +28°C° 0 mm 3 mps 683 mmHg 28%
10:00 +29°C° 0 mm 3 mps 683 mmHg 28%
11:00 +30°C° 0 mm 3 mps 683 mmHg 28%
12:00 +30°C° 0 mm 4 mps 683 mmHg 27%
13:00 +32°C° 0 mm 4 mps 682 mmHg 28%
14:00 +32°C° 0 mm 4 mps 682 mmHg 28%
15:00 +32°C° 0 mm 4 mps 682 mmHg 29%
16:00 +32°C° 0 mm 4 mps 682 mmHg 30%
17:00 +30°C° 0 mm 4 mps 682 mmHg 32%
18:00 +30°C° 0 mm 4 mps 682 mmHg 33%
19:00 +28°C° 0 mm 3 mps 682 mmHg 35%
20:00 +25°C° 0 mm 3 mps 682 mmHg 36%
21:00 +23°C° 0 mm 2 mps 682 mmHg 38%
22:00 +23°C° 0 mm 2 mps 682 mmHg 39%
23:00 +23°C° 0 mm 2 mps 681 mmHg 40%

Tomorrow, 7 July, Tuesday

Time Temperature Precipitation Wind Pressure Humidity
00:00 +21°C° 0 mm 2 mps 681 mmHg 41%
01:00 +21°C° 0 mm 2 mps 681 mmHg 41%
02:00 +21°C° 0 mm 2 mps 681 mmHg 41%
03:00 +20°C° 0 mm 2 mps 681 mmHg 40%
04:00 +21°C° 0 mm 2 mps 681 mmHg 41%
05:00 +23°C° 0 mm 2 mps 681 mmHg 42%
06:00 +23°C° 0 mm 2 mps 681 mmHg 42%
07:00 +25°C° 0 mm 2 mps 682 mmHg 38%
08:00 +27°C° 0 mm 2 mps 682 mmHg 34%
09:00 +29°C° 0 mm 2 mps 683 mmHg 29%
10:00 +30°C° 0 mm 2 mps 682 mmHg 28%
11:00 +31°C° 0 mm 2 mps 682 mmHg 27%
12:00 +33°C° 0 mm 3 mps 682 mmHg 25%
13:00 +33°C° 0 mm 3 mps 682 mmHg 25%
14:00 +34°C° 0 mm 3 mps 682 mmHg 25%
15:00 +34°C° 0 mm 3 mps 682 mmHg 24%
16:00 +34°C° 0 mm 3 mps 681 mmHg 26%
17:00 +33°C° 0 mm 3 mps 681 mmHg 29%
18:00 +31°C° 0 mm 3 mps 681 mmHg 31%
19:00 +29°C° 0 mm 2 mps 681 mmHg 34%
20:00 +27°C° 0 mm 2 mps 681 mmHg 37%
21:00 +24°C° 0 mm 2 mps 681 mmHg 41%
22:00 +24°C° 0 mm 2 mps 681 mmHg 42%
23:00 +24°C° 0 mm 2 mps 681 mmHg 43%

Day after tomorrow, 8 July, Wednesday

Time Temperature Precipitation Wind Pressure Humidity
00:00 +23°C° 0 mm 2 mps 680 mmHg 43%
01:00 +23°C° 0 mm 2 mps 680 mmHg 43%
02:00 +23°C° 0 mm 2 mps 680 mmHg 43%
03:00 +23°C° 0 mm 2 mps 680 mmHg 42%
04:00 +24°C° 0 mm 1 mps 680 mmHg 43%
05:00 +24°C° 0 mm 1 mps 681 mmHg 43%
06:00 +25°C° 0 mm 1 mps 681 mmHg 44%
07:00 +27°C° 0 mm 1 mps 681 mmHg 39%
08:00 +29°C° 0 mm 1 mps 682 mmHg 35%
09:00 +31°C° 0 mm 2 mps 682 mmHg 31%
10:00 +32°C° 0 mm 2 mps 682 mmHg 29%
11:00 +34°C° 0 mm 3 mps 682 mmHg 28%
12:00 +35°C° 0 mm 3 mps 682 mmHg 26%
13:00 +35°C° 0 mm 3 mps 681 mmHg 26%
14:00 +36°C° 0 mm 3 mps 681 mmHg 26%
15:00 +36°C° 0 mm 4 mps 681 mmHg 26%
16:00 +35°C° 0 mm 3 mps 680 mmHg 29%
17:00 +34°C° 0 mm 2 mps 680 mmHg 33%
18:00 +32°C° 0 mm 2 mps 680 mmHg 36%
19:00 +30°C° 0 mm 2 mps 680 mmHg 39%
20:00 +28°C° 0 mm 1 mps 680 mmHg 42%
21:00 +26°C° 0 mm 1 mps 680 mmHg 44%
22:00 +26°C° 0 mm 1 mps 680 mmHg 44%
23:00 +26°C° 0 mm 2 mps 680 mmHg 44%

9 July, Thursday

Time Temperature Precipitation Wind Pressure Humidity
00:00 +26°C° 0 mm 2 mps 680 mmHg 44%
01:00 +26°C° 0 mm 2 mps 680 mmHg 43%
02:00 +26°C° 0 mm 1 mps 681 mmHg 43%
03:00 +26°C° 0 mm 1 mps 681 mmHg 43%
04:00 +26°C° 0 mm 1 mps 681 mmHg 45%
05:00 +26°C° 0 mm 1 mps 681 mmHg 47%
06:00 +26°C° 0 mm 1 mps 682 mmHg 49%
07:00 +27°C° 0 mm 1 mps 682 mmHg 46%
08:00 +28°C° 0 mm 2 mps 682 mmHg 44%
09:00 +30°C° 0 mm 3 mps 683 mmHg 41%
10:00 +31°C° 0.1 mm 3 mps 683 mmHg 39%
11:00 +33°C° 0.1 mm 3 mps 683 mmHg 37%
12:00 +34°C° 0.1 mm 3 mps 683 mmHg 35%
13:00 +34°C° 0.1 mm 3 mps 682 mmHg 34%
14:00 +35°C° 0.1 mm 4 mps 682 mmHg 33%
15:00 +35°C° 0.1 mm 4 mps 682 mmHg 33%
16:00 +34°C° 0.1 mm 4 mps 682 mmHg 36%
17:00 +33°C° 0.1 mm 4 mps 682 mmHg 39%
18:00 +32°C° 0.1 mm 4 mps 682 mmHg 42%
19:00 +29°C° 0.1 mm 3 mps 682 mmHg 47%
20:00 +27°C° 0.1 mm 2 mps 682 mmHg 52%
21:00 +24°C° 0.1 mm 1 mps 683 mmHg 57%
22:00 +24°C° 0 mm 1 mps 683 mmHg 59%
23:00 +23°C° 0 mm 1 mps 683 mmHg 61%

10 July, Friday

Time Temperature Precipitation Wind Pressure Humidity
00:00 +23°C° 0 mm 1 mps 683 mmHg 63%
01:00 +23°C° 0 mm 1 mps 683 mmHg 63%
02:00 +23°C° 0 mm 1 mps 683 mmHg 64%
03:00 +23°C° 0 mm 1 mps 683 mmHg 64%
04:00 +23°C° 0 mm 1 mps 684 mmHg 63%
05:00 +24°C° 0 mm 1 mps 684 mmHg 61%
06:00 +24°C° 0 mm 1 mps 684 mmHg 60%
07:00 +25°C° 0 mm 1 mps 685 mmHg 58%
08:00 +26°C° 0 mm 2 mps 685 mmHg 55%
09:00 +27°C° 0 mm 2 mps 685 mmHg 53%
10:00 +28°C° 0.1 mm 2 mps 685 mmHg 50%
11:00 +29°C° 0.1 mm 3 mps 685 mmHg 47%
12:00 +30°C° 0.1 mm 3 mps 685 mmHg 44%
13:00 +31°C° 0.1 mm 3 mps 685 mmHg 43%
14:00 +31°C° 0.1 mm 3 mps 684 mmHg 42%
15:00 +33°C° 0.1 mm 3 mps 684 mmHg 41%
16:00 +31°C° 0.1 mm 3 mps 684 mmHg 44%
17:00 +30°C° 0.1 mm 4 mps 684 mmHg 46%
18:00 +30°C° 0.1 mm 4 mps 684 mmHg 49%
19:00 +28°C° 0.2 mm 3 mps 684 mmHg 57%
20:00 +26°C° 0.2 mm 2 mps 684 mmHg 64%
21:00 +24°C° 0.2 mm 1 mps 684 mmHg 72%
22:00 +23°C° 0.6 mm 1 mps 684 mmHg 74%
23:00 +23°C° 0.6 mm 1 mps 684 mmHg 77%

11 July, Saturday

Time Temperature Precipitation Wind Pressure Humidity
00:00 +22°C° 0.6 mm 1 mps 684 mmHg 80%
01:00 +22°C° 0.4 mm 1 mps 684 mmHg 80%
02:00 +22°C° 0.4 mm 1 mps 684 mmHg 80%
03:00 +21°C° 0.4 mm 1 mps 683 mmHg 80%
04:00 +22°C° 0 mm 1 mps 684 mmHg 78%
05:00 +23°C° 0 mm 1 mps 684 mmHg 76%
06:00 +23°C° 0 mm 1 mps 684 mmHg 74%
07:00 +24°C° 0 mm 1 mps 684 mmHg 71%
08:00 +25°C° 0 mm 2 mps 684 mmHg 67%
09:00 +26°C° 0 mm 2 mps 684 mmHg 64%
10:00 +27°C° 0 mm 2 mps 684 mmHg 61%
11:00 +28°C° 0 mm 3 mps 684 mmHg 58%
12:00 +28°C° 0 mm 3 mps 684 mmHg 55%
13:00 +29°C° 0 mm 3 mps 683 mmHg 51%
14:00 +30°C° 0 mm 3 mps 683 mmHg 47%
15:00 +31°C° 0 mm 3 mps 683 mmHg 43%
16:00 +30°C° 0.1 mm 3 mps 683 mmHg 45%
17:00 +30°C° 0.1 mm 4 mps 683 mmHg 47%
18:00 +29°C° 0.1 mm 4 mps 683 mmHg 50%
19:00 +27°C° 0 mm 3 mps 683 mmHg 55%
20:00 +25°C° 0 mm 2 mps 683 mmHg 61%
21:00 +24°C° 0 mm 1 mps 683 mmHg 66%
22:00 +23°C° 0 mm 1 mps 683 mmHg 67%
23:00 +23°C° 0 mm 1 mps 683 mmHg 68%
Show more